Home > Weather > Osterode am Harz > Past weeks

Flag for Germany Weather for the Past 2 Weeks in Osterode am Harz, Lower Saxony, Germany

Now
34 °F

Light rain. Passing clouds.


Feels Like: 31 °F
Forecast: 30 / 35 °F
Wind: 3 mph from North

Location: Hannover

Current Time: Feb 15, 2016 at 12:48:04 AM

Latest Report: Feb 14, 2016 at 11:50 PM


Visibility: 3 mi

Pressure: 29.47 "Hg

Humidity: 100%

Dew point: 34 °F

Location of Osterode am HarzLocation

Historic Weather in Osterode am Harz — Graph

°F

Osterode am Harz Temperature Yesterday

Maximum temperature yesterday: 37 °F (at 12:20 AM)
Minimum temperature yesterday: 32 °F (at 7:20 AM)
Average temperature yesterday: 34 °F

High & Low Weather Summary for the Past Weeks

 TemperatureHumidityPressure
High55 °F (Feb 7, 11:50 AM)100% (Jan 31, 7:50 PM)30.24 "Hg (Jan 31, 7:50 PM)
Low27 °F (Feb 13, 5:50 AM)59% (Feb 7, 11:50 AM)28.80 "Hg (Feb 9, 6:50 PM)
Average42 °F85%29.62 "Hg
* Reported Jan 30 11:20 PM — Feb 14 11:20 PM, Osterode am Harz, Weather by CustomWeather, © 2016

Note: Actual official high and low records may vary slightly from our data, if they occured in-between our weather recording intervals... More about our weather records

Advertising

Osterode am Harz Weather History for the Previous 24 Hours

 ConditionsComfort  
Time TempWeatherWind HumidityBarometerVisibility
11:20 PM
Sun, Feb 14
34 °FSnow flurries. Partly cloudy.5 mph100%29.45 "Hg4 mi
10:50 PM34 °FSnow flurries. Mostly cloudy.3 mph100%29.45 "Hg4 mi
10:20 PM34 °FSnow flurries. Mostly cloudy.5 mph100%29.42 "Hg5 mi
9:20 PM34 °FPassing clouds.3 mph100%29.42 "Hg4 mi
8:50 PM34 °FPassing clouds.2 mph100%29.39 "Hg4 mi
8:20 PM32 °FLight rain. Passing clouds.2 mph100%29.39 "Hg2 mi
7:50 PM34 °FLight rain. Passing clouds.3 mph100%29.36 "Hg2 mi
7:20 PM34 °FLight rain. Passing clouds.2 mph100%29.36 "Hg3 mi
6:50 PM34 °FLight rain. Passing clouds.3 mph100%29.33 "Hg3 mi
6:20 PM34 °FLight rain. Passing clouds.2 mph100%29.33 "Hg3 mi
5:50 PM34 °FLight rain. Passing clouds.3 mph100%29.30 "Hg4 mi
5:20 PM34 °FDrizzle. Partly sunny.6 mph100%29.30 "Hg4 mi
4:50 PM34 °FDrizzle. Partly sunny.6 mph100%29.27 "Hg3 mi
4:20 PM34 °FDrizzle. Partly sunny.6 mph100%29.27 "Hg4 mi
3:50 PM36 °FDrizzle. Partly sunny.8 mph93%29.24 "HgN/A
3:20 PM36 °FPartly sunny.9 mph93%29.24 "HgN/A
2:50 PM36 °FPartly sunny.8 mph93%29.21 "HgN/A
2:20 PM34 °FPartly sunny.9 mph100%29.21 "HgN/A
1:50 PM36 °FPartly sunny.10 mph93%29.21 "HgN/A
1:20 PM34 °FPartly sunny.9 mph100%29.18 "HgN/A
12:50 PM34 °FPartly sunny.9 mph100%29.18 "HgN/A
12:20 PM34 °FPartly sunny.10 mph100%29.18 "HgN/A
11:50 AM34 °FPartly sunny.9 mph100%29.18 "Hg5 mi
11:20 AM34 °FLight rain. Partly sunny.10 mph100%29.18 "Hg4 mi
10:50 AM34 °FLight rain. Fog.10 mph100%29.15 "Hg2 mi
10:20 AM32 °FLight rain. Ice fog.10 mph100%29.15 "Hg1 mi
9:50 AM32 °FLight rain. Ice fog.8 mph100%29.15 "Hg1 mi
9:20 AM32 °FLight rain. Ice fog.9 mph100%29.12 "Hg1 mi
8:20 AM32 °FLight rain. Ice fog.10 mph100%29.12 "Hg1 mi
7:50 AM32 °FLight rain. Ice fog.12 mph100%29.12 "Hg1 mi
7:20 AM32 °FLight rain. Passing clouds.13 mph100%29.12 "Hg1 mi
6:50 AM34 °FLight rain. Passing clouds.14 mph93%29.12 "Hg1 mi
6:20 AM34 °FLight snow. Passing clouds.15 mph93%29.12 "Hg2 mi
5:50 AM34 °FLight snow. Passing clouds.15 mph100%29.12 "Hg2 mi
5:20 AM34 °FLight snow. Passing clouds.16 mph100%29.12 "Hg2 mi
4:50 AM34 °FLight rain. Passing clouds.16 mph100%29.12 "Hg2 mi
4:20 AM36 °FLight rain. Passing clouds.15 mph93%29.12 "Hg2 mi
3:50 AM36 °FPassing clouds.16 mph93%29.12 "Hg3 mi
3:20 AM36 °FPassing clouds.16 mph93%29.12 "Hg4 mi
2:20 AM36 °FLight rain. Passing clouds.16 mph93%29.12 "Hg6 mi
1:50 AM36 °FLight rain. Passing clouds.17 mph93%29.12 "HgN/A
1:20 AM37 °FLight rain. Partly cloudy.15 mph81%29.12 "HgN/A
12:50 AM37 °FPartly cloudy.14 mph81%29.15 "HgN/A
12:20 AM37 °FClear.16 mph81%29.12 "Hg10 mi
Weather by CustomWeather, © 2016

See weather overviewHow to use our weather pages